GSAT-14

Last updated on Tue Jul 01 2025 00:02:46 GMT+0000 (Coordinated Universal Time)

1 39498U 14001A 25181.51111490 -.00000078 00000+0 00000+0 0 9992 2 39498 0.0452 264.3494 0000952 236.9888 35.4671 1.00271826 41859
UTC large
Height (km)
Speed (km/s)
/
Latitude / Longitude
Inclination (degrees)
Orbital Period (minutes)
Azimuth
Elevation
Range (km)
Doppler Factor

Next 0 passes for location: London (51.5072 / 0.1276)

Sorry there are no passes over London.